Starlink 31783

operational
NORAD ID: 59750 Int'l Des: 2024-090 Owner: SPXS Country: US Constellation: starlink
LEOCIRCULAR

About Starlink 31783

Description loading...

Live Position

Loading 3D Globe...

Upcoming Passes

Altitude History

Altitude vs Time

uPlot chart will show altitude changes over time

Two-Line Element Set

1 59750U 24090W 25304.73321306 -.00001426 00000-0 -42346-4 0 9998
2 59750 43.0008 192.1411 0000928 276.8593 83.2153 15.27561257 83702
Epoch: Oct 31, 2025 • Age: 19 hours

Current Status

Altitude 484.2 km
Velocity 7.63 km/s
Sub-Earth Point 31.08°N, 3.02°W
Launch Date May 13, 2024
Age 1.4 years
Type internet

Technical Details

Classification Payload
Mass 730.00 kg
Dry Mass 700.00 kg
Total Mass 730.00 kg
Length 0.30 m
Diameter 4.10 m
Span 29.00 m
Shape Box + pan
Manufacturer SPXS
Bus Type Starlink V2M
Phase Status In Orbit
Owner/State SPXS/US

Large Constellations

Loading constellations...